📊 Raw Sensor Data

Showing records 44101 to 44125 of 85,030 total

ID Distance (ft) Battery V Battery A Int Temp (°F) Int Humid (%) Ext Temp (°F) Solar V RSSI SNR Time Stamp
40942 15.7 3.96 0 64 41 64 5.10 -68 8 05/18/2025 08:30 AM
40941 15.8 3.99 0 62 41 62 5.10 -68 8 05/18/2025 08:15 AM
40940 15.8 3.96 0 60 41 62 5.10 -68 7 05/18/2025 08:00 AM
40939 15.8 3.96 0 59 40 60 5.10 -68 7 05/18/2025 07:45 AM
40938 15.8 3.96 0 57 40 62 5.10 -67 8 05/18/2025 07:30 AM
40937 15.7 4.01 11 55 40 59 4.50 -68 8 05/18/2025 07:15 AM
40936 15.7 4.00 0 52 40 56 4.50 -68 8 05/18/2025 07:00 AM
40935 15.6 3.98 7 50 41 53 4.50 -68 8 05/18/2025 06:45 AM
40934 15.6 3.91 0 48 41 51 4.50 -68 8 05/18/2025 06:30 AM
40933 15.6 3.96 0 47 42 50 4.50 -68 8 05/18/2025 06:15 AM
40932 15.5 3.87 -9 46 42 48 4.50 -68 8 05/18/2025 06:00 AM
40931 15.5 3.89 -5 47 42 48 1.20 -68 8 05/18/2025 05:45 AM
40930 15.5 3.88 -5 46 42 49 0.20 -68 8 05/18/2025 05:30 AM
40929 15.1 3.89 -5 47 43 48 0.00 -68 9 05/18/2025 05:15 AM
40928 15.1 3.96 -5 47 43 49 0.00 -68 8 05/18/2025 05:00 AM
40927 15.1 3.89 -5 48 42 49 0.10 -68 8 05/18/2025 04:45 AM
40926 15.2 3.96 -5 49 41 51 0.00 -68 8 05/18/2025 04:30 AM
40925 15.1 3.88 -5 50 41 52 0.00 -68 8 05/18/2025 04:15 AM
40924 15.0 3.88 -5 49 42 52 0.10 -68 9 05/18/2025 04:00 AM
40923 15.0 3.96 -5 49 42 51 0.00 -68 8 05/18/2025 03:45 AM
40922 15.0 3.88 -5 48 42 51 0.00 -69 7 05/18/2025 03:30 AM
40921 15.0 3.96 -5 47 43 50 0.00 -68 8 05/18/2025 03:15 AM
40920 15.0 3.89 -5 47 43 48 0.10 -68 8 05/18/2025 03:00 AM
40919 15.1 3.90 -5 48 43 50 0.00 -68 8 05/18/2025 02:45 AM
40918 15.0 3.90 -5 49 43 51 0.00 -68 8 05/18/2025 02:30 AM